This is the latest recevied weather packets stored in our database for station/object N9GKE-1. If no packets are shown the sender has not sent any weather packets the latest 10 day(s).
| Time | Temp. | Humidity | Pressure | Rain* | Wind** | Luminosity | Snow |
|---|---|---|---|---|---|---|---|
| 1778182750 | 15° C | 42% | 1013.6 hPa | 0 mm | - | - | - |
| 1778182294 | 15° C | 41% | 1013.8 hPa | 0 mm | - | - | - |
| 1778182150 | 15° C | 40% | 1013.8 hPa | 0 mm | - | - | - |
| 1778181694 | 15.56° C | 39% | 1013.8 hPa | 0 mm | - | - | - |
| 1778181550 | 15.56° C | 40% | 1013.8 hPa | 0 mm | - | - | - |
| 1778181095 | 15.56° C | 39% | 1013.8 hPa | 0 mm | - | - | - |
| 1778180949 | 15.56° C | 38% | 1013.8 hPa | 0 mm | - | - | - |
| 1778180494 | 15.56° C | 39% | 1013.9 hPa | 0 mm | - | - | - |
| 1778180353 | 16.11° C | 40% | 1013.9 hPa | 0 mm | - | - | - |
| 1778179894 | 16.11° C | 39% | 1013.9 hPa | 0 mm | - | - | - |
| 1778179749 | 16.11° C | 40% | 1014 hPa | 0 mm | - | - | - |
| 1778179296 | 16.11° C | 39% | 1013.9 hPa | 0 mm | - | - | - |
| 1778179150 | 16.11° C | 39% | 1013.8 hPa | 0 mm | - | - | - |
| 1778178695 | 15.56° C | 40% | 1014 hPa | 0 mm | - | - | - |
| 1778178550 | 15.56° C | 41% | 1014.1 hPa | 0 mm | - | - | - |
| 1778178098 | 15.56° C | 37% | 1014.1 hPa | 0 mm | - | - | - |
| 1778177951 | 15.56° C | 40% | 1014.1 hPa | 0 mm | - | - | - |
| 1778177494 | 16.11° C | 38% | 1014.1 hPa | 0 mm | - | - | - |
| 1778177350 | 16.11° C | 38% | 1014.1 hPa | 0 mm | - | - | - |
| 1778176894 | 15.56° C | 39% | 1014.3 hPa | 0 mm | - | - | - |
| 1778176751 | 15.56° C | 40% | 1014.2 hPa | 0 mm | - | - | - |
| 1778176296 | 16.11° C | 40% | 1014.5 hPa | 0 mm | - | - | - |
| 1778176150 | 16.11° C | 39% | 1014.4 hPa | 0 mm | - | - | - |
| 1778175695 | 16.11° C | 40% | 1014.6 hPa | 0 mm | - | - | - |
| 1778175550 | 16.11° C | 42% | 1014.7 hPa | 0 mm | - | - | - |
* Rain latest hour (hover to see other rain measurements)
** Current wind speed in m/s (hover to see current wind gust speed)